Weather History for Austin Bergstrom, TX

Change the Weather History Date:

Wednesday, September 12, 2012

  Actual Average Record
Temperature  
Mean Temperature 84 °F 79 °F  
Max Temperature 97 °F 91 °F 102 °F (2011)
Min Temperature 71 °F 67 °F 56 °F (1968)
Degree Days  
Heating Degree Days 0 0  
Month to date heating degree days 0 0  
Since 1 July heating degree days 0 0  
Cooling Degree Days 19 14  
Month to date cooling degree days 212 183  
Year to date cooling degree days 2700 2323  
Growing Degree Days 36 (Base 50)    
Moisture  
Dew Point 69 °F    
Average Humidity 61    
Maximum Humidity 87    
Minimum Humidity 35    
Precipitation  
Precipitation 0.00 in 0.09 in 2.08 in (1961)
Month to date precipitation 0.00 1.07  
Year to date precipitation 28.71 24.17  
Snow  
Snow 0.00 in - - ()
Month to date snowfall 0.0  
Since 1 July snowfall 0.0  
Since 1 September snowfall 0.0  
Snow Depth 0.00 in    
Sea Level Pressure  
Sea Level Pressure 29.98 in    
Wind  
Wind Speed 7 mph (SE)    
Max Wind Speed 23 mph    
Max Gust Speed 29 mph    
Visibility 10 miles    
Events      
T = Trace of Precipitation, MM = Missing Value Source: NWS Daily Summary

Daily Weather History Graph

Daily Weather History Graph

Search for Another Location

Airport:

Trip Planner

Search our weather history database for the weather conditions in past years. The results will help you decide how hot, cold, wet, or windy it might be!

Date:

Astronomy

Sep. 12, 2012 Rise Set
Actual Time 7:13 AM CDT 7:39 PM CDT
Civil Twilight 6:49 AM CDT 8:03 PM CDT
Nautical Twilight 6:21 AM CDT 8:31 PM CDT
Astronomical Twilight 5:52 AM CDT 8:59 PM CDT
Moon 3:44 AM CDT (9/12) 5:17 PM CDT (9/12)
Length of Visible Light 13h 13m
Length of Day
12h 25m
Waning Crescent, 13% of the Moon is Illuminated
Sep 12
Waning Crescent
Sep 15
New
Sep 22
First Quarter
Sep 29
Full
Oct 8
Last Quarter

Hourly Weather History & Observations

Time (CDT) Temp. Heat Index Dew Point Humidity Pressure Visibility Wind Dir Wind Speed Gust Speed Precip Events Conditions
12:53 AM 75.9 °F - 66.9 °F 74% 30.00 in 10.0 mi Calm Calm - N/A   Scattered Clouds
1:31 AM 71.6 °F - 66.2 °F 83% 30.02 in 10.0 mi Calm Calm - N/A   Mostly Cloudy
1:53 AM 73.9 °F - 66.9 °F 79% 29.99 in 10.0 mi Calm Calm - N/A   Mostly Cloudy
2:53 AM 73.9 °F - 68.0 °F 82% 29.98 in 10.0 mi Calm Calm - N/A   Mostly Cloudy
3:53 AM 75.9 °F - 68.0 °F 76% 29.97 in 10.0 mi Calm Calm - N/A   Overcast
4:27 AM 75.2 °F - 69.8 °F 83% 30.00 in 10.0 mi ESE 4.6 mph - N/A   Overcast
4:53 AM 75.0 °F - 69.1 °F 82% 29.97 in 10.0 mi East 3.5 mph - N/A   Mostly Cloudy
5:23 AM 75.2 °F - 69.8 °F 83% 30.00 in 10.0 mi ESE 3.5 mph - N/A   Mostly Cloudy
5:53 AM 75.0 °F - 69.1 °F 82% 29.98 in 10.0 mi ESE 3.5 mph - N/A   Overcast
6:53 AM 73.9 °F - 69.1 °F 85% 29.99 in 10.0 mi East 3.5 mph - N/A   Mostly Cloudy
7:43 AM 73.4 °F - 69.8 °F 88% 30.03 in 10.0 mi ESE 3.5 mph - N/A   Overcast
7:53 AM 73.9 °F - 70.0 °F 87% 30.01 in 10.0 mi East 3.5 mph - N/A   Overcast
8:53 AM 75.9 °F - 71.1 °F 85% 30.02 in 10.0 mi East 3.5 mph - N/A   Overcast
9:10 AM 77.0 °F - 71.6 °F 83% 30.05 in 10.0 mi Variable 3.5 mph - N/A   Scattered Clouds
9:53 AM 80.1 °F 83.6 °F 71.1 °F 74% 30.03 in 10.0 mi South 8.1 mph - N/A   Mostly Cloudy
10:22 AM 80.6 °F 84.6 °F 71.6 °F 74% 30.07 in 10.0 mi South 4.6 mph - N/A   Scattered Clouds
10:53 AM 82.9 °F 87.5 °F 71.1 °F 67% 30.03 in 10.0 mi SSE 5.8 mph - N/A   Scattered Clouds
11:53 AM 87.1 °F 92.0 °F 70.0 °F 57% 30.01 in 10.0 mi South 6.9 mph - N/A   Scattered Clouds
12:53 PM 90.0 °F 93.6 °F 68.0 °F 48% 29.99 in 10.0 mi South 4.6 mph 16.1 mph N/A   Scattered Clouds
1:53 PM 91.0 °F 94.3 °F 66.9 °F 45% 29.96 in 10.0 mi Calm Calm - N/A   Mostly Cloudy
2:53 PM 95.0 °F 97.9 °F 66.0 °F 38% 29.93 in 10.0 mi SE 9.2 mph - N/A   Mostly Cloudy
3:53 PM 96.1 °F 98.8 °F 64.9 °F 36% 29.90 in 10.0 mi SSE 10.4 mph - N/A   Mostly Cloudy
4:53 PM 96.1 °F 98.3 °F 64.0 °F 35% 29.88 in 10.0 mi South 10.4 mph 17.3 mph N/A   Mostly Cloudy
5:53 PM 91.9 °F 95.9 °F 68.0 °F 45% 29.88 in 10.0 mi SE 15.0 mph 25.3 mph N/A   Scattered Clouds
6:53 PM 91.0 °F 95.2 °F 68.0 °F 47% 29.90 in 10.0 mi SSE 15.0 mph 20.7 mph N/A   Mostly Cloudy
7:53 PM 88.0 °F 92.1 °F 69.1 °F 53% 29.90 in 10.0 mi SSE 16.1 mph - N/A   Mostly Cloudy
8:53 PM 86.0 °F 90.1 °F 69.1 °F 57% 29.93 in 10.0 mi SSE 9.2 mph - N/A   Mostly Cloudy
9:53 PM 84.0 °F 89.0 °F 71.1 °F 65% 29.96 in 10.0 mi SSE 8.1 mph - N/A   Scattered Clouds
10:53 PM 82.0 °F 86.7 °F 72.0 °F 71% 29.99 in 10.0 mi SSE 9.2 mph - N/A   Scattered Clouds
11:53 PM 81.0 °F 85.2 °F 72.0 °F 74% 29.99 in 10.0 mi SSE 8.1 mph - N/A   Scattered Clouds